Location: Arbon
(43.0005°N, 0.7472°E)
Time: 07:25:54
(UTC+00:00)

A-11 Canister half - Pass Details

Date: 01 December 2020
Orbit: 1517 x 1683 km, 47.2° (Epoch: 22 January)

Event Time Altitude Azimuth Distance (km) Brightness Sun altitude
Rises 17:59:06 0° 296° (WNW) 4,928 12.5 -17.0°
Reaches altitude 10° 18:02:32 10° 288° (WNW) 3,945 12.0 -17.6°
Maximum altitude 18:11:32 38° 226° (SW) 2,382 10.4 -19.2°
Drops below altitude 10° 18:20:27 10° 163° (SSE) 3,907 11.1 -20.8°
Sets 18:23:52 0° 155° (SSE) 4,875 11.5 -21.4°
